Home   Weather   Washington DC   Past weeks
Flag for USA

Past Weather in Washington DC, USA — Yesterday and Last 2 Weeks

Now
34 °F

Passing clouds.


Feels Like: 28 °F
Forecast: 26 / 42 °F
Wind: 7 mph from Northeast

Location: Reagan National Airport

Current Time: Dec 10, 2018 at 9:27:53 pm

Latest Report: Dec 10, 2018 at 8:52 pm


Visibility: 10 mi

Pressure: 30.21 "Hg

Humidity: 64%

Dew Point: 23 °F

Location of Washington DCLocation

Past Weather in Washington DC — Graph

°F

Washington DC Temperature Yesterday

Maximum temperature yesterday: 35 °F (at 12:52 pm)
Minimum temperature yesterday: 32 °F (at 3:52 am)
Average temperature yesterday: 34 °F

High & Low Weather Summary for the Past Weeks

 TemperatureHumidityPressure
High62 °F (Dec 3, 12:52 pm)96% (Dec 2, 10:32 am)30.59 "Hg (Dec 2, 10:32 am)
Low28 °F (Dec 8, 6:52 am)34% (Dec 7, 1:52 pm)29.48 "Hg (Nov 26, 2:52 pm)
Average41 °F63%30.03 "Hg
* Reported Nov 25 7:52 pm — Dec 10 7:52 pm, Washington DC. Weather by CustomWeather, © 2018

Note: Actual official high and low records may vary slightly from our data, if they occured in-between our weather recording intervals... More about our weather records

Advertising

Washington DC Weather History for the Previous 24 Hours

Scroll right to see more
 ConditionsComfort  
Time TempWeatherWind HumidityBarometerVisibility
7:52 pm
Mon, Dec 10
36 °FPassing clouds.12 mph59%30.20 "Hg10 mi
6:52 pm37 °FPassing clouds.10 mph57%30.18 "Hg10 mi
5:52 pm36 °FPassing clouds.10 mph59%30.17 "Hg10 mi
4:52 pm37 °FPassing clouds.14 mph57%30.15 "Hg10 mi
3:52 pm40 °FPartly sunny.10 mph51%30.14 "Hg10 mi
2:52 pm41 °FPartly sunny.9 mph49%30.13 "Hg10 mi
1:52 pm39 °FHigh level clouds.12 mph50%30.14 "Hg10 mi
12:52 pm39 °FHigh level clouds.12 mph48%30.15 "Hg10 mi
11:52 am36 °FOvercast.13 mph52%30.17 "Hg10 mi
10:52 am35 °FPartly sunny.10 mph54%30.20 "Hg10 mi
9:52 am33 °FBroken clouds.10 mph56%30.21 "Hg10 mi
8:52 am32 °FBroken clouds.14 mph54%30.18 "Hg10 mi
7:52 am32 °FPartly sunny.15 mph56%30.16 "Hg10 mi
6:52 am30 °FPartly cloudy.13 mph59%30.14 "Hg10 mi
5:52 am32 °FPassing clouds.10 mph54%30.12 "Hg10 mi
4:52 am33 °FPassing clouds.10 mph52%30.10 "Hg10 mi
3:52 am32 °FPassing clouds.12 mph54%30.09 "Hg10 mi
2:52 am32 °FPassing clouds.9 mph54%30.11 "Hg10 mi
1:52 am32 °FOvercast.10 mph56%30.11 "Hg10 mi
12:52 am33 °FOvercast.13 mph54%30.12 "Hg10 mi
11:52 pm
Sun, Dec 9
33 °FOvercast.10 mph54%30.13 "Hg10 mi
10:52 pm34 °FPartly cloudy.12 mph52%30.15 "Hg10 mi
9:52 pm35 °FPartly cloudy.12 mph50%30.18 "Hg10 mi
Weather by CustomWeather, © 2018

See weather overview